{"data":{"norad_id":62154,"intl_designator":"2024-224R","name":"STARLINK-32625","alt_names":[],"object_type":"PAYLOAD","status":"ACTIVE","operator":null,"country":"US","launch_date":"2024-11-30","launch_site_code":"AFETR","launch_vehicle":null,"mission":null,"orbit_class":"UNKNOWN","rcs_meters":null,"size_class":null,"mass_kg":null,"dimensions":null,"purposes":["comms"],"wikipedia_slug":null,"has_3d_model":false,"image_url":null,"decayed_at":null,"tle_current":{"epoch":"2026-09-21T01:05:24.095328Z","epoch_age_seconds":134441,"freshness":"FRESH","line1":"1 62154U 24224R   26264.04541777  .00009643  00000+0  35922-3 0  9992","line2":"2 62154  43.0006 135.1385 0001235 284.9135  75.1580 15.27603618102246","mean_motion":15.27603618,"eccentricity":0.0001235,"inclination_deg":43.0006,"raan_deg":135.1385,"arg_perigee_deg":284.9135,"mean_anomaly_deg":75.158,"bstar":0.00035922,"rev_number":10224,"period_min":94.2652912727,"perigee_km":482.13102841334,"apogee_km":483.82572391125,"semimajor_km":6861.1153761623,"source":"CELESTRAK","updated_at":"2026-09-22T09:00:49.532415Z"}}}